FW3968 Weather Reports


time (UTC)temp
C
wind
direction
speed
KPH
gust
KPH
rain 1hr
cm
rain 24hr
cm
rain mn
cm
humidity
%
barometer
mb
20260508090510 3 337 0.0 1.6 0.00 0.00 0.00 75 1006.0
20260508085608 3 337 0.0 1.6 0.00 0.00 0.00 74 1006.1
20260508084612 3 337 0.0 0.0 0.00 0.00 0.00 73 1006.0
20260508082610 4 292 0.0 1.6 0.00 0.00 0.00 71 1006.1
20260508081608 4 360 0.0 1.6 0.00 0.00 0.00 71 1005.9
20260508080608 4 325 0.0 0.0 0.00 0.00 0.00 70 1006.0
20260508075609 4 335 1.6 4.8 0.00 0.00 0.00 69 1006.0
20260508074610 5 334 1.6 4.8 0.00 0.00 0.00 68 1005.9
20260508073611 5 329 1.6 4.8 0.00 0.00 0.00 66 1005.7
20260508072610 5 332 4.8 6.4 0.00 0.00 0.00 66 1005.8
20260508071709 5 351 1.6 4.8 0.00 0.00 0.00 65 1005.9
20260508070808 5 344 3.2 6.4 0.00 0.00 0.00 65 1005.8
20260508065809 5 349 3.2 6.4 0.00 0.00 0.00 65 1005.9
20260508063808 5 323 3.2 8.0 0.00 0.00 0.00 63 1005.9
20260508061810 6 332 3.2 8.0 0.00 0.00 0.00 62 1006.1
20260508060809 6 334 4.8 11.3 0.00 0.00 0.00 61 1006.1
20260508055809 6 335 4.8 8.0 0.00 0.00 0.00 61 1006.4
20260508053809 6 22 0.0 0.0 0.00 0.00 0.00 61 1006.4
20260508052808 6 349 3.2 6.4 0.00 0.00 0.00 60 1006.3
20260508051907 6 322 6.4 11.3 0.00 0.00 0.00 60 1006.4
20260508045911 5 360 0.0 0.0 0.00 0.00 0.00 62 1006.5
20260508045008 6 360 0.0 0.0 0.00 0.00 0.00 60 1006.5
20260508043109 5 333 6.4 6.4 0.00 0.00 0.00 64 1006.8
20260508042110 5 348 1.6 3.2 0.00 0.00 0.00 65 1006.9
20260508040208 5 180 0.0 0.0 0.00 0.00 0.00 64 1007.1
20260508035216 5 180 0.0 0.0 0.00 0.00 0.00 66 1007.1
20260508034216 5 178 4.8 9.7 0.00 0.00 0.00 67 1007.2
20260508033216 5 157 1.6 1.6 0.00 0.00 0.00 65 1007.3
20260508032218 -17 0 0.0 0.0 0.00 0.00 0.00 100
20260508031216 -17 0 0.0 0.0 0.00 0.00 0.00 100
20260508030217 -17 0 0.0 0.0 0.00 0.00 0.00 100
20260508025218 6 225 0.0 0.0 0.00 0.00 0.00 58 1006.8
20260508024216 6 292 1.6 3.2 0.00 0.00 0.00 61 1007.0
20260508023234 6 292 0.0 1.6 0.00 0.00 0.00 57 1006.7
20260508022217 6 157 0.0 0.0 0.00 0.00 0.00 56 1006.9
20260508020317 7 157 0.0 0.0 0.00 0.00 0.00 56 1006.8
20260508014417 8 135 1.6 3.2 0.00 0.00 0.00 51 1007.2
20260508013418 8 337 3.2 3.2 0.00 0.00 0.00 48 1007.1
20260508012418 8 337 0.0 1.6 0.00 0.00 0.00 48 1007.0
20260508011517 9 360 3.2 4.8 0.00 0.00 0.00 46 1007.1
20260508010517 9 7 4.8 6.4 0.00 0.00 0.00 47 1007.2
20260508005519 9 342 3.2 6.4 0.00 0.00 0.00 46 1007.0
20260508004518 10 312 3.2 6.4 0.00 0.00 0.00 46 1006.9
20260508003517 10 332 4.8 9.7 0.00 0.00 0.00 46 1006.9
20260508001516 10 345 8.0 12.9 0.00 0.00 0.00 44 1006.7
20260508000516 11 357 9.7 16.1 0.00 0.00 0.00 44 1006.5
20260507235516 11 324 8.0 17.7 0.00 0.00 0.00 44 1006.4
20260507234518 11 7 16.1 30.6 0.00 0.00 0.00 44 1006.0
20260507233516 11 326 8.0 12.9 0.00 0.00 0.00 46 1005.7
20260507232517 12 349 9.7 16.1 0.00 0.00 0.00 47 1005.5
20260507231518 12 357 16.1 24.1 0.00 0.00 0.00 50 1005.1
20260507225516 13 349 14.5 22.5 0.00 0.00 0.00 52 1004.6
20260507224519 13 348 6.4 9.7 0.00 0.00 0.00 54 1004.4
20260507223616 13 20 8.0 17.7 0.00 0.00 0.00 58 1004.2
20260507222616 13 32 9.7 17.7 0.00 0.00 0.00 61 1004.2
20260507221619 13 22 4.8 6.4 0.00 0.00 0.00 61 1004.1
20260507220716 13 32 6.4 9.7 0.00 0.00 0.00 61 1003.9
20260507215717 13 25 6.4 9.7 0.00 0.00 0.00 60 1004.0
20260507214816 13 341 4.8 6.4 0.00 0.00 0.00 59 1004.0
20260507213834 14 328 6.4 9.7 0.00 0.00 0.00 58 1003.9
20260507212917 14 18 9.7 17.7 0.00 0.00 0.00 58 1003.8
20260507211919 14 358 8.0 12.9 0.00 0.00 0.00 55 1003.7
20260507211016 15 20 14.5 20.9 0.00 0.00 0.00 52 1003.6
20260507210018 15 332 3.2 11.3 0.00 0.00 0.00 51 1003.6
20260507204117 15 341 4.8 8.0 0.00 0.00 0.00 51 1003.4
20260507203117 15 343 4.8 9.7 0.00 0.00 0.00 49 1003.2
20260507201216 15 340 9.7 19.3 0.00 0.00 0.00 52 1003.1
20260507195317 14 359 6.4 9.7 0.00 0.00 0.00 54 1003.2
20260507194415 14 313 6.4 11.3 0.00 0.00 0.00 53 1003.4
20260507193418 15 351 8.0 12.9 0.00 0.00 0.00 52 1003.3
20260507192417 15 344 8.0 16.1 0.00 0.00 0.00 52 1003.4
20260507191418 15 343 8.0 11.3 0.00 0.00 0.00 52 1003.3
20260507190419 15 335 9.7 12.9 0.00 0.00 0.00 52 1003.3
20260507185417 15 342 9.7 14.5 0.00 0.00 0.00 47 1003.4
20260507184419 17 324 6.4 8.0 0.00 0.00 0.00 43 1003.4
20260507183434 16 78 1.6 4.8 0.00 0.00 0.00 43 1003.5
20260507182419 17 327 9.7 19.3 0.00 0.00 0.00 43 1003.6
20260507181416 16 146 9.7 17.7 0.00 0.00 0.00 45 1003.5
20260507180417 15 330 1.6 6.4 0.00 0.00 0.00 45 1003.8
20260507175517 15 335 6.4 9.7 0.00 0.00 0.00 47 1003.8
20260507174616 16 123 3.2 8.0 0.00 0.00 0.00 46 1003.9
20260507173618 16 141 8.0 16.1 0.00 0.00 0.00 46 1004.0
20260507172617 17 156 11.3 19.3 0.00 0.00 0.00 45 1003.8
20260507171616 16 178 4.8 6.4 0.00 0.00 0.00 47 1004.0
20260507170632 15 168 9.7 12.9 0.00 0.00 0.00 48 1004.0
20260507165719 15 359 8.0 12.9 0.00 0.00 0.00 50 1004.2
20260507162918 15 314 3.2 6.4 0.00 0.00 0.00 50 1004.8
20260507161933 14 29 3.2 6.4 0.00 0.00 0.00 53 1005.0
20260507160017 14 315 6.4 11.3 0.00 0.00 0.00 55 1005.0
20260507155017 14 340 3.2 6.4 0.00 0.00 0.00 55 1005.0
20260507154017 14 35 0.0 3.2 0.00 0.00 0.00 58 1005.2
20260507152016 13 353 3.2 4.8 0.00 0.00 0.00 60 1005.4
20260507151017 13 108 6.4 9.7 0.00 0.00 0.00 59 1005.6
20260507150015 13 337 0.0 3.2 0.00 0.00 0.00 61 1005.8
20260507145021 -17 0 0.0 0.0 0.00 0.00 0.00 100
20260507144022 13 135 3.2 3.2 0.00 0.00 0.00 63 1005.9
20260507143021 12 32 6.4 8.0 0.00 0.00 0.00 64 1006.0
20260507142038 12 8 1.6 4.8 0.00 0.00 0.00 66 1006.2
20260507141020 12 360 6.4 6.4 0.00 0.00 0.00 67 1006.1
20260507135022 11 319 4.8 6.4 0.00 0.00 0.00 71 1006.3
20260507134020 11 292 0.0 3.2 0.00 0.00 0.00 74 1006.2
20260507133119 11 35 8.0 14.5 0.00 0.00 0.00 75 1006.3
20260507132122 10 16 4.8 11.3 0.00 0.00 0.00 76 1006.4
20260507131121 11 35 14.5 19.3 0.00 0.00 0.00 77 1006.4
20260507130121 10 329 6.4 9.7 0.00 0.00 0.00 78 1006.4
20260507125219 10 299 1.6 3.2 0.00 0.00 0.00 79 1006.4
20260507124222 10 330 6.4 9.7 0.00 0.00 0.00 79 1006.7
20260507123238 10 342 6.4 9.7 0.00 0.00 0.00 81 1006.6
20260507122223 10 336 6.4 9.7 0.00 0.00 0.00 82 1006.7
20260507120322 9 348 4.8 8.0 0.00 0.00 0.00 84 1006.9
20260507115320 8 343 4.8 4.8 0.00 0.00 0.00 86 1006.5
20260507114320 8 325 4.8 11.3 0.00 0.00 0.00 88 1006.9
20260507113320 8 346 4.8 8.0 0.00 0.00 0.00 89 1006.9
20260507112321 8 346 1.6 4.8 0.00 0.00 0.00 89 1006.8
20260507111321 8 345 3.2 6.4 0.00 0.00 0.00 90 1006.3
20260507110319 8 3 8.0 9.7 0.00 0.00 0.00 91 1006.3
20260507105321 8 327 4.8 9.7 0.00 0.00 0.00 93 1006.5
20260507104321 7 342 6.4 14.5 0.00 0.00 0.00 94 1006.1
20260507103420 7 313 0.0 3.2 0.00 0.00 0.00 95 1006.3
20260507102520 7 326 3.2 4.8 0.00 0.00 0.00 96 1006.0
20260507101520 7 360 1.6 1.6 0.00 0.00 0.00 96 1006.0
20260507100523 7 316 0.0 1.6 0.00 0.00 0.00 96 1006.2
20260507095522 7 337 0.0 1.6 0.00 0.00 0.00 96 1006.2
20260507093622 7 348 1.6 4.8 0.00 0.00 0.00 95 1006.0
20260507093520 7 337 1.6 3.2 0.00 0.00 0.00 96 1006.2
20260507092522 7 360 0.0 0.0 0.00 0.00 0.00 96 1006.3
20260507091619 7 360 0.0 3.2 0.00 0.00 0.00 96 1005.7